WZZ49UF LYBE-LIRA

Flight info

Callsign WZZ49UF
Flight time 1h 25m
Altitude 20000
Route VAL Y88 VEBAR/N0463F300 DCT KEB/N0459F320 DCT GILUK DCT VRANA DCT PEVON DCT VELUG/N0462F310 DCT ESODU DCT ASPIR DCT MOPUV
Aircraft A320/M-SDE3FGHIRWY/LB1

Departure

Time 2026-05-08 02:46
Airport Belgrade Nikola Tesla Airport (LYBE)

Arrival

Time 2026-05-08 04:12
Airport Ciampino–G. B. Pastine International Airport (LIRA)
Time Latitude Longitude Altitude Speed Heading
2026-05-08 02:24 44.81973 20.29316 306 ft 0 kts 302°
2026-05-08 02:37 44.81965 20.29335 307 ft 4 kts 302°
2026-05-08 02:38 44.81948 20.29370 307 ft 4 kts 325°
2026-05-08 02:38 44.81935 20.29378 306 ft 4 kts 11°
2026-05-08 02:38 44.81911 20.29362 307 ft 0 kts 32°
2026-05-08 02:40 44.81915 20.29365 307 ft 2 kts 31°
2026-05-08 02:40 44.81931 20.29378 306 ft 4 kts 30°
2026-05-08 02:40 44.81958 20.29398 307 ft 5 kts 26°
2026-05-08 02:41 44.81995 20.29429 307 ft 7 kts 33°
2026-05-08 02:41 44.82040 20.29473 308 ft 9 kts 35°
2026-05-08 02:41 44.82093 20.29525 307 ft 10 kts 38°
2026-05-08 02:41 44.82115 20.29613 310 ft 10 kts 107°
2026-05-08 02:42 44.82069 20.29706 307 ft 13 kts 127°
2026-05-08 02:42 44.82014 20.29818 309 ft 15 kts 122°
2026-05-08 02:42 44.81954 20.29956 307 ft 18 kts 122°
2026-05-08 02:42 44.81885 20.30113 306 ft 20 kts 122°
2026-05-08 02:43 44.81810 20.30284 307 ft 21 kts 122°
2026-05-08 02:43 44.81728 20.30467 307 ft 23 kts 122°
2026-05-08 02:43 44.81640 20.30662 310 ft 24 kts 123°
2026-05-08 02:43 44.81545 20.30869 306 ft 26 kts 122°
2026-05-08 02:44 44.81448 20.31099 305 ft 28 kts 120°
2026-05-08 02:44 44.81345 20.31340 306 ft 29 kts 121°
2026-05-08 02:44 44.81233 20.31588 307 ft 30 kts 123°
2026-05-08 02:44 44.81126 20.31819 306 ft 26 kts 121°
2026-05-08 02:45 44.81030 20.32037 306 ft 26 kts 120°
2026-05-08 02:45 44.80994 20.32210 305 ft 13 kts 66°
2026-05-08 02:45 44.81053 20.32231 304 ft 8 kts 306°
2026-05-08 02:45 44.81115 20.32086 307 ft 42 kts 302°
2026-05-08 02:46 44.81394 20.31463 307 ft 105 kts 302°
2026-05-08 02:46 44.81870 20.30388 307 ft 151 kts 301°
2026-05-08 02:46 44.82489 20.29037 579 ft 170 kts 303°
2026-05-08 02:46 44.83119 20.27647 1225 ft 169 kts 301°
2026-05-08 02:47 44.83741 20.26234 1761 ft 176 kts 301°
2026-05-08 02:47 44.84431 20.24671 2000 ft 200 kts 301°
2026-05-08 02:47 44.85211 20.22911 2331 ft 223 kts 301°
2026-05-08 02:47 44.86062 20.21003 2935 ft 234 kts 302°
2026-05-08 02:48 44.86941 20.19037 3718 ft 238 kts 302°
2026-05-08 02:48 44.87832 20.17043 4538 ft 241 kts 302°
2026-05-08 02:48 44.88720 20.15054 5324 ft 245 kts 301°
2026-05-08 02:48 44.89644 20.12985 5862 ft 250 kts 301°
2026-05-08 02:49 44.90571 20.10906 5982 ft 250 kts 301°
2026-05-08 02:49 44.91496 20.08829 6011 ft 249 kts 301°
2026-05-08 02:49 44.92408 20.06779 6008 ft 249 kts 301°
2026-05-08 02:49 44.93331 20.04708 6008 ft 249 kts 301°
2026-05-08 02:50 44.94253 20.02636 6010 ft 249 kts 301°
2026-05-08 02:50 44.95174 20.00564 6007 ft 249 kts 301°
2026-05-08 02:50 44.96095 19.98489 6006 ft 249 kts 301°
2026-05-08 02:50 44.97003 19.96437 6006 ft 249 kts 301°
2026-05-08 02:51 44.97923 19.94360 6008 ft 249 kts 301°
2026-05-08 02:51 44.98830 19.92278 6009 ft 248 kts 297°
2026-05-08 02:51 44.99244 19.89951 6006 ft 246 kts 265°
2026-05-08 02:51 44.98711 19.87659 6010 ft 257 kts 234°
2026-05-08 02:52 44.97353 19.86019 6010 ft 266 kts 211°
2026-05-08 02:52 44.95737 19.84694 6006 ft 268 kts 210°
2026-05-08 02:52 44.94108 19.83392 6013 ft 268 kts 210°
2026-05-08 02:52 44.92484 19.82096 6010 ft 267 kts 210°
2026-05-08 02:53 44.90866 19.80800 6007 ft 267 kts 210°
2026-05-08 02:53 44.89247 19.79500 6007 ft 267 kts 210°
2026-05-08 02:53 44.87647 19.78217 6011 ft 267 kts 210°
2026-05-08 02:53 44.86027 19.76915 6007 ft 267 kts 211°
2026-05-08 02:54 44.84415 19.75611 6006 ft 267 kts 211°
2026-05-08 02:54 44.82756 19.74413 6001 ft 268 kts 200°
2026-05-08 02:54 44.80940 19.73888 6027 ft 272 kts 183°
2026-05-08 02:54 44.79035 19.74176 6727 ft 277 kts 169°
2026-05-08 02:55 44.77149 19.74730 7592 ft 278 kts 171°
2026-05-08 02:55 44.73307 19.75817 9192 ft 284 kts 172°
2026-05-08 02:55 44.71355 19.76369 9974 ft 288 kts 172°
2026-05-08 02:56 44.69397 19.76923 10662 ft 291 kts 172°
2026-05-08 02:56 44.67400 19.77491 11370 ft 293 kts 172°
2026-05-08 02:56 44.65375 19.78069 12099 ft 296 kts 172°
2026-05-08 02:56 44.63369 19.78638 12794 ft 298 kts 172°
2026-05-08 02:57 44.61324 19.79219 13499 ft 301 kts 172°
2026-05-08 02:57 44.59261 19.79808 14149 ft 304 kts 172°
2026-05-08 02:57 44.57172 19.80406 14779 ft 307 kts 172°
2026-05-08 02:57 44.55074 19.81009 15399 ft 309 kts 172°
2026-05-08 02:58 44.52950 19.81620 16009 ft 312 kts 173°
2026-05-08 02:58 44.50830 19.82228 16609 ft 314 kts 173°
2026-05-08 02:58 44.48681 19.82845 17216 ft 317 kts 173°
2026-05-08 02:58 44.46506 19.83468 17821 ft 320 kts 173°
2026-05-08 02:59 44.44307 19.84092 18411 ft 322 kts 173°
2026-05-08 02:59 44.42100 19.84715 18921 ft 325 kts 173°
2026-05-08 02:59 44.39901 19.85336 19418 ft 327 kts 173°
2026-05-08 02:59 44.37663 19.85965 19901 ft 329 kts 175°
2026-05-08 03:00 44.35409 19.86055 20026 ft 321 kts 194°
2026-05-08 03:00 44.33343 19.84837 20070 ft 329 kts 221°
2026-05-08 03:00 44.31877 19.82302 20076 ft 344 kts 242°
2026-05-08 03:00 44.30826 19.79256 20069 ft 362 kts 245°
2026-05-08 03:01 44.29715 19.76014 20167 ft 375 kts 245°
2026-05-08 03:01 44.28630 19.72629 20290 ft 387 kts 246°
2026-05-08 03:01 44.27523 19.69115 20420 ft 398 kts 246°
2026-05-08 03:01 44.26447 19.65546 20544 ft 408 kts 248°
2026-05-08 03:02 44.25387 19.61831 20652 ft 417 kts 248°
2026-05-08 03:02 44.24337 19.58002 20783 ft 426 kts 249°
2026-05-08 03:02 44.23284 19.54081 20907 ft 434 kts 249°
2026-05-08 03:02 44.22232 19.50154 21044 ft 440 kts 249°
2026-05-08 03:03 44.21147 19.46132 21272 ft 443 kts 249°
2026-05-08 03:03 44.20047 19.42089 21590 ft 445 kts 249°
2026-05-08 03:03 44.18941 19.38061 21924 ft 447 kts 249°
2026-05-08 03:03 44.17838 19.34041 22240 ft 448 kts 249°
2026-05-08 03:04 44.16747 19.29955 22570 ft 449 kts 249°
2026-05-08 03:04 44.15677 19.25855 22992 ft 448 kts 250°
2026-05-08 03:04 44.14622 19.21771 23469 ft 447 kts 250°
2026-05-08 03:04 44.13572 19.17704 23901 ft 445 kts 250°
2026-05-08 03:05 44.12514 19.13694 24267 ft 445 kts 249°
2026-05-08 03:05 44.11416 19.09655 24662 ft 444 kts 249°
2026-05-08 03:05 44.10309 19.05654 25073 ft 442 kts 249°
2026-05-08 03:05 44.09210 19.01718 25482 ft 440 kts 249°
2026-05-08 03:06 44.08102 18.97753 25946 ft 438 kts 249°
2026-05-08 03:06 44.07001 18.93803 26401 ft 436 kts 249°
2026-05-08 03:06 44.05909 18.89872 26888 ft 434 kts 249°
2026-05-08 03:06 44.04828 18.85966 27355 ft 432 kts 249°
2026-05-08 03:07 44.03753 18.82070 27836 ft 430 kts 249°
2026-05-08 03:07 44.02692 18.78236 28338 ft 428 kts 249°
2026-05-08 03:07 44.01621 18.74377 28852 ft 425 kts 249°
2026-05-08 03:07 44.00551 18.70540 29299 ft 424 kts 249°
2026-05-08 03:08 43.99493 18.66764 29747 ft 423 kts 249°
2026-05-08 03:08 43.98419 18.62930 30247 ft 422 kts 249°
2026-05-08 03:08 43.97369 18.59173 30637 ft 420 kts 249°
2026-05-08 03:08 43.96307 18.55378 31047 ft 419 kts 249°
2026-05-08 03:09 43.95250 18.51615 31454 ft 417 kts 249°
2026-05-08 03:09 43.94193 18.47857 31852 ft 416 kts 249°
2026-05-08 03:09 43.93214 18.44125 32090 ft 416 kts 254°
2026-05-08 03:10 43.91715 18.36374 32111 ft 414 kts 255°
2026-05-08 03:10 43.90232 18.28641 32112 ft 414 kts 255°
2026-05-08 03:11 43.88734 18.20954 32110 ft 416 kts 255°
2026-05-08 03:11 43.87210 18.13208 32108 ft 416 kts 255°
2026-05-08 03:12 43.85690 18.05450 32105 ft 416 kts 255°
2026-05-08 03:12 43.84175 17.97740 32102 ft 416 kts 255°
2026-05-08 03:13 43.82631 17.89976 32096 ft 416 kts 255°
2026-05-08 03:13 43.81099 17.82300 32094 ft 416 kts 254°
2026-05-08 03:14 43.79546 17.74556 32095 ft 416 kts 254°
2026-05-08 03:14 43.77997 17.66827 32084 ft 416 kts 254°
2026-05-08 03:15 43.76448 17.59148 32071 ft 417 kts 254°
2026-05-08 03:15 43.74525 17.51593 32076 ft 417 kts 243°
2026-05-08 03:16 43.71752 17.44519 32072 ft 418 kts 243°
2026-05-08 03:16 43.69010 17.37486 32084 ft 418 kts 243°
2026-05-08 03:17 43.66249 17.30406 32071 ft 418 kts 242°
2026-05-08 03:17 43.63469 17.23319 32066 ft 419 kts 242°
2026-05-08 03:18 43.60696 17.16281 32066 ft 420 kts 242°
2026-05-08 03:18 43.57900 17.09178 32065 ft 420 kts 242°
2026-05-08 03:19 43.55120 17.02127 32072 ft 420 kts 242°
2026-05-08 03:19 43.52318 16.95033 32075 ft 420 kts 242°
2026-05-08 03:20 43.49531 16.88004 32058 ft 420 kts 242°
2026-05-08 03:20 43.46724 16.80956 32056 ft 420 kts 242°
2026-05-08 03:21 43.43902 16.73889 32048 ft 420 kts 242°
2026-05-08 03:21 43.41105 16.66888 32049 ft 420 kts 242°
2026-05-08 03:22 43.38274 16.59826 32026 ft 420 kts 242°
2026-05-08 03:22 43.35459 16.52810 32020 ft 421 kts 242°
2026-05-08 03:23 43.32622 16.45763 32011 ft 421 kts 242°
2026-05-08 03:23 43.29791 16.38760 32012 ft 422 kts 242°
2026-05-08 03:24 43.26930 16.31686 32025 ft 422 kts 242°
2026-05-08 03:24 43.24088 16.24680 32016 ft 422 kts 242°
2026-05-08 03:25 43.21235 16.17677 32006 ft 422 kts 242°
2026-05-08 03:25 43.18376 16.10645 32006 ft 422 kts 242°
2026-05-08 03:26 43.15990 16.04792 32007 ft 422 kts 242°
2026-05-08 03:26 43.13102 15.97755 32018 ft 422 kts 241°
2026-05-08 03:27 43.10239 15.90793 32007 ft 422 kts 241°
2026-05-08 03:27 43.07358 15.83797 32007 ft 422 kts 241°
2026-05-08 03:28 43.04466 15.76792 32006 ft 422 kts 241°
2026-05-08 03:28 43.01593 15.69831 32005 ft 422 kts 241°
2026-05-08 03:29 42.98700 15.62837 32012 ft 422 kts 241°
2026-05-08 03:29 42.95801 15.55861 31996 ft 422 kts 241°
2026-05-08 03:30 42.91437 15.45420 31993 ft 422 kts 241°
2026-05-08 03:31 42.85667 15.31478 31989 ft 422 kts 241°
2026-05-08 03:32 42.81364 15.21061 32002 ft 422 kts 241°
2026-05-08 03:32 42.78462 15.14078 31983 ft 422 kts 241°
2026-05-08 03:33 42.75580 15.07164 31982 ft 422 kts 241°
2026-05-08 03:33 42.72670 15.00215 31978 ft 422 kts 241°
2026-05-08 03:34 42.69777 14.93315 31981 ft 422 kts 241°
2026-05-08 03:34 42.66861 14.86366 31989 ft 422 kts 241°
2026-05-08 03:35 42.63965 14.79481 31984 ft 421 kts 241°
2026-05-08 03:35 42.61049 14.72564 31979 ft 421 kts 241°
2026-05-08 03:36 42.57867 14.65042 31978 ft 421 kts 240°
2026-05-08 03:36 42.54943 14.58152 31984 ft 421 kts 240°
2026-05-08 03:37 42.52029 14.51292 31987 ft 421 kts 240°
2026-05-08 03:37 42.49090 14.44397 31984 ft 421 kts 240°
2026-05-08 03:38 42.46150 14.37522 31991 ft 421 kts 240°
2026-05-08 03:38 42.43226 14.30677 31996 ft 421 kts 240°
2026-05-08 03:39 42.40319 14.23817 32003 ft 421 kts 241°
2026-05-08 03:39 42.37455 14.17059 32001 ft 408 kts 240°
2026-05-08 03:40 42.34625 14.10423 31995 ft 406 kts 240°
2026-05-08 03:40 42.31815 14.03836 31603 ft 405 kts 240°
2026-05-08 03:40 42.30389 14.00501 29971 ft 413 kts 240°
2026-05-08 03:41 42.28925 13.97079 27923 ft 426 kts 239°
2026-05-08 03:41 42.27421 13.93567 26016 ft 436 kts 239°
2026-05-08 03:41 42.25896 13.90009 24294 ft 440 kts 239°
2026-05-08 03:41 42.24373 13.86462 22758 ft 440 kts 239°
2026-05-08 03:42 42.22871 13.82975 22138 ft 421 kts 239°
2026-05-08 03:42 42.22506 13.82128 22100 ft 417 kts 239°
2026-05-08 03:56 42.21883 13.80691 21828 ft 414 kts 239°
2026-05-08 03:56 42.20449 13.77371 21259 ft 408 kts 239°
2026-05-08 03:57 42.19059 13.74044 20587 ft 406 kts 243°
2026-05-08 03:57 42.17978 13.70527 19921 ft 405 kts 248°
2026-05-08 03:57 42.16985 13.66980 19271 ft 403 kts 248°
2026-05-08 03:57 42.16002 13.63489 18646 ft 402 kts 248°
2026-05-08 03:58 42.15006 13.59964 18004 ft 401 kts 248°
2026-05-08 03:58 42.14013 13.56452 17387 ft 399 kts 248°
2026-05-08 03:58 42.13033 13.52982 16827 ft 395 kts 248°
2026-05-08 03:58 42.12060 13.49544 16438 ft 387 kts 248°
2026-05-08 03:59 42.11119 13.46225 16315 ft 372 kts 248°
2026-05-08 03:59 42.10212 13.43034 16177 ft 358 kts 248°
2026-05-08 03:59 42.09346 13.39995 16060 ft 345 kts 248°
2026-05-08 03:59 42.08501 13.37032 15930 ft 333 kts 248°
2026-05-08 04:00 42.07676 13.34151 15734 ft 325 kts 248°
2026-05-08 04:00 42.06869 13.31332 15595 ft 319 kts 248°
2026-05-08 04:00 42.06055 13.28544 15476 ft 320 kts 244°
2026-05-08 04:00 42.04997 13.25939 14985 ft 326 kts 238°
2026-05-08 04:01 42.03834 13.23308 14650 ft 325 kts 238°
2026-05-08 04:01 42.02676 13.20719 14342 ft 321 kts 238°
2026-05-08 04:01 42.01524 13.18150 14088 ft 316 kts 238°
2026-05-08 04:01 42.00412 13.15664 13885 ft 302 kts 238°
2026-05-08 04:02 41.99365 13.13246 13429 ft 296 kts 244°
2026-05-08 04:02 41.98513 13.10780 12878 ft 293 kts 244°
2026-05-08 04:02 41.97658 13.08296 12355 ft 289 kts 244°
2026-05-08 04:02 41.96814 13.05849 11798 ft 287 kts 245°
2026-05-08 04:03 41.96032 13.03395 11357 ft 286 kts 252°
2026-05-08 04:03 41.95611 12.98156 10695 ft 281 kts 269°
2026-05-08 04:03 41.95566 12.95535 10217 ft 278 kts 268°
2026-05-08 04:04 41.95516 12.92946 9750 ft 275 kts 268°
2026-05-08 04:04 41.95467 12.90374 9363 ft 273 kts 268°
2026-05-08 04:04 41.95420 12.87817 8977 ft 275 kts 268°
2026-05-08 04:04 41.95374 12.85275 8551 ft 269 kts 268°
2026-05-08 04:05 41.95327 12.82810 8127 ft 265 kts 268°
2026-05-08 04:05 41.95277 12.80340 7756 ft 266 kts 268°
2026-05-08 04:05 41.95226 12.77857 7369 ft 262 kts 268°
2026-05-08 04:05 41.95177 12.75424 6994 ft 257 kts 268°
2026-05-08 04:06 41.95128 12.73052 6643 ft 259 kts 268°
2026-05-08 04:06 41.95077 12.70617 6275 ft 262 kts 268°
2026-05-08 04:06 41.95027 12.68186 5956 ft 256 kts 268°
2026-05-08 04:06 41.94980 12.65837 5613 ft 247 kts 268°
2026-05-08 04:07 41.94934 12.63574 5267 ft 239 kts 268°
2026-05-08 04:07 41.94889 12.61370 4925 ft 232 kts 269°
2026-05-08 04:07 41.94846 12.59236 4603 ft 225 kts 268°
2026-05-08 04:07 41.94802 12.57180 4283 ft 219 kts 268°
2026-05-08 04:08 41.94758 12.55164 3978 ft 213 kts 268°
2026-05-08 04:08 41.94560 12.53232 3703 ft 204 kts 245°
2026-05-08 04:08 41.93680 12.51850 3420 ft 190 kts 209°
2026-05-08 04:08 41.92459 12.51355 3019 ft 182 kts 181°
2026-05-08 04:09 41.91291 12.51643 2678 ft 165 kts 155°
2026-05-08 04:09 41.90310 12.52312 2439 ft 152 kts 151°
2026-05-08 04:09 41.89379 12.52955 2235 ft 148 kts 151°
2026-05-08 04:09 41.88467 12.53586 2040 ft 147 kts 150°
2026-05-08 04:10 41.87573 12.54204 1850 ft 146 kts 150°
2026-05-08 04:10 41.86669 12.54830 1657 ft 146 kts 149°
2026-05-08 04:10 41.85770 12.55451 1449 ft 145 kts 150°
2026-05-08 04:10 41.84870 12.56073 1265 ft 145 kts 150°
2026-05-08 04:11 41.83976 12.56691 1074 ft 145 kts 150°
2026-05-08 04:11 41.83078 12.57312 888 ft 145 kts 150°
2026-05-08 04:11 41.82192 12.57923 694 ft 144 kts 151°
2026-05-08 04:11 41.81299 12.58540 514 ft 144 kts 151°
2026-05-08 04:12 41.80440 12.59151 411 ft 129 kts 150°
2026-05-08 04:12 41.79778 12.59627 411 ft 74 kts 152°
2026-05-08 04:12 41.79529 12.59775 414 ft 32 kts 162°
2026-05-08 04:12 41.79337 12.59888 415 ft 26 kts 152°
2026-05-08 04:13 41.79182 12.60009 415 ft 26 kts 150°
2026-05-08 04:13 41.79050 12.60009 409 ft 19 kts 240°
2026-05-08 04:13 41.79083 12.59865 407 ft 19 kts 327°
2026-05-08 04:13 41.79207 12.59780 407 ft 21 kts 332°
2026-05-08 04:14 41.79253 12.59663 406 ft 14 kts 252°
2026-05-08 04:14 41.79290 12.59562 406 ft 12 kts 353°
2026-05-08 04:14 41.79321 12.59607 406 ft 0 kts 57°
2026-05-08 04:14 41.79322 12.59607 406 ft 0 kts 51°